Wind_Speed
10 10 10 10 10 10 10 9 10 10 11 11 11 11 11 11 11 11 11 11 11 12 12 12 12 12 12 11 11 10 10 10 10 11 10 10 11 11 11 11 11 12 12
10 10 10 11 11 10 10 10 11 11 11 11 12 12 12 12 11 11 11 11 12 12 12 13 12 12 12 12 11 11 11 11 11 12 12 11 11 11 12 12 12 12 13
11 11 12 12 12 11 11 11 11 11 11 12 12 12 12 12 11 12 12 12 12 13 13 13 13 13 13 13 12 12 12 12 11 11 12 12 12 12 12 13 13 13 13
12 12 12 13 12 12 12 11 11 11 12 13 13 12 13 13 13 13 13 12 12 13 14 14 14 14 14 14 14 14 13 13 12 12 12 13 13 13 13 14 14 14 14
12 12 13 13 13 13 13 13 13 13 13 14 13 13 14 14 14 14 14 13 14 14 15 15 15 16 15 14 15 14 14 14 14 13 13 14 14 14 14 14 15 15 15
14 14 14 14 15 14 14 15 15 15 15 15 15 14 14 14 14 15 15 15 15 16 15 16 16 16 16 15 15 14 14 14 14 14 14 13 14 14 14 13 14 15 15
16 16 16 16 16 16 16 16 16 16 16 16 16 15 15 15 15 15 16 16 17 16 16 17 16 17 17 16 15 15 15 14 15 14 14 14 14 14 15 14 14 15 15
17 17 18 18 18 18 18 17 17 17 17 17 17 17 16 16 16 16 16 16 16 17 17 17 16 16 16 16 16 16 16 16 15 15 15 16 16 15 15 15 15 15 15
18 19 19 19 20 20 20 19 18 18 18 18 18 18 17 16 16 16 16 16 17 17 17 18 17 17 17 17 17 17 17 16 16 16 17 17 17 17 16 16 17 17 17
20 20 20 21 21 21 21 21 20 20 20 20 20 20 20 19 18 18 18 18 18 18 18 18 18 18 18 18 18 18 18 17 17 17 18 18 18 18 18 18 18 18 18
20 20 21 22 22 23 22 22 22 22 22 22 22 21 22 21 20 20 20 20 20 20 20 20 20 20 19 19 19 19 19 19 19 19 19 19 19 19 19 19 19 19 18
22 22 22 23 23 23 23 24 24 24 23 23 23 23 23 23 22 22 22 21 21 21 21 21 21 21 21 21 20 20 20 20 21 21 21 21 20 20 20 20 20 20 20
23 23 23 24 24 24 24 24 24 24 24 24 25 25 25 25 24 24 23 23 22 22 22 22 22 22 22 22 22 22 21 22 21 21 21 21 21 21 21 21 21 21 21
25 25 25 25 25 25 25 25 25 25 25 25 26 26 26 26 26 25 25 24 24 23 23 23 23 23 22 23 23 23 22 23 23 22 22 22 22 22 22 22 22 22 22
26 26 26 26 26 26 26 26 26 26 26 26 27 27 27 27 27 27 26 26 26 25 24 25 25 24 24 24 24 24 24 24 23 22 23 23 23 23 22 22 23 23 23
27 27 27 27 27 26 26 26 26 26 27 26 27 27 27 28 27 27 27 28 27 27 25 25 25 25 25 25 25 25 25 25 24 24 24 24 24 24 24 24 24 24 24
27 27 28 28 27 26 26 26 26 26 26 26 27 27 28 28 28 28 28 28 28 28 27 26 25 25 26 26 26 26 26 26 25 25 25 25 24 25 25 25 25 25 25
28 27 27 28 27 27 26 26 26 26 26 26 26 27 28 28 28 28 28 28 27 27 27 27 25 25 26 26 26 26 26 26 26 25 25 25 25 26 26 25 25 25 24
28 27 27 27 27 27 27 27 27 27 26 26 26 27 27 27 28 28 28 28 28 28 28 27 26 26 27 27 27 26 26 26 26 26 26 26 26 26 25 25 25 24 24
28 28 28 28 28 28 28 27 27 27 27 27 27 27 27 28 28 27 27 27 28 28 28 28 27 26 27 27 26 27 27 27 26 25 25 25 26 26 25 25 25 25 25
29 28 28 28 28 29 29 28 28 28 27 27 27 28 28 27 27 27 28 28 28 27 28 28 27 27 27 27 27 27 28 27 27 26 26 26 26 26 26 25 25 25 25
29 29 28 28 28 29 28 28 27 27 27 28 28 28 28 28 27 26 27 28 28 27 27 27 27 27 28 28 27 28 28 28 28 27 27 27 27 27 27 26 25 26 26
28 28 29 29 29 29 28 28 27 27 27 27 28 28 28 28 28 27 27 27 28 27 27 27 27 28 28 28 28 28 28 28 28 27 27 27 27 28 28 27 27 26 26
28 28 28 29 30 29 28 28 27 27 28 28 28 28 28 28 28 28 28 27 27 27 27 28 27 27 28 28 28 28 28 28 28 28 28 27 27 28 28 28 28 27 27
28 28 28 28 27 28 28 27 27 28 28 28 28 28 29 28 28 28 27 27 27 27 27 27 27 27 27 28 28 28 28 28 28 28 28 28 28 28 28 28 28 28 27
28 27 27 27 26 27 26 27 28 28 28 28 28 28 28 28 28 28 28 28 28 28 28 28 28 27 27 27 27 27 27 28 28 28 28 28 28 28 29 29 29 29 28
Wind_Direction
287 288 288 290 293 294 293 291 287 284 284 285 284 281 281 282 277 274 271 267 263 260 259 260 258 257 258 259 260 262 263 266 267 263 262 263 264 264 258 257 258 259 260
283 286 287 289 292 293 293 293 292 288 288 286 284 283 282 280 276 274 271 266 261 259 259 259 261 263 262 260 258 261 265 268 271 268 265 266 266 262 260 260 259 261 261
280 283 285 287 289 289 290 291 291 290 288 288 285 285 283 280 276 273 272 269 263 261 261 260 260 260 260 259 259 263 266 269 271 270 269 266 263 262 260 261 260 262 264
287 285 284 285 287 288 288 287 287 288 288 287 286 286 285 281 277 275 273 268 265 264 263 261 259 257 260 260 260 262 265 266 267 269 267 265 262 261 262 261 259 261 262
286 285 285 285 285 286 286 286 286 286 287 286 284 284 283 282 280 278 273 268 266 265 263 259 258 258 259 260 262 263 264 267 268 269 268 265 264 262 263 262 260 262 262
283 281 282 283 283 283 283 284 285 284 284 284 285 283 280 279 278 276 273 270 266 265 264 261 260 260 260 259 262 263 264 266 267 267 268 267 266 265 264 264 263 263 263
282 281 280 282 281 281 281 282 283 283 282 282 284 282 279 278 278 274 270 267 266 264 264 263 260 259 260 261 261 262 263 265 266 266 267 267 266 268 267 268 266 265 263
282 281 281 281 280 280 279 279 281 282 284 283 283 282 279 276 275 275 270 263 262 262 263 262 259 260 259 260 262 262 263 263 264 265 266 266 267 268 268 269 269 269 267
283 281 279 279 279 279 279 279 279 279 281 283 282 280 279 278 277 274 271 266 263 264 265 262 261 262 262 262 262 262 262 262 263 264 265 266 267 267 268 268 268 268 264
283 283 281 280 279 278 277 276 277 278 278 279 279 277 275 274 274 273 272 270 268 267 267 265 263 262 261 261 262 261 261 262 263 264 265 266 266 267 267 267 267 265 264
285 284 283 283 281 278 276 275 274 275 276 276 276 274 273 272 271 271 272 271 270 269 268 265 262 260 260 261 261 261 262 263 264 265 265 266 265 265 266 266 266 264 263
286 286 285 284 282 280 278 276 275 274 274 274 273 272 271 271 270 270 271 270 269 269 268 266 263 261 260 260 261 262 262 264 265 265 265 263 263 263 265 266 265 263 262
285 285 286 285 283 281 279 278 277 275 274 273 273 272 270 270 270 269 270 270 269 268 269 268 266 263 263 262 262 263 263 264 265 265 264 263 262 263 263 264 264 263 262
283 284 284 284 283 281 280 279 278 276 275 274 274 273 270 268 268 267 269 269 269 268 268 268 266 264 264 264 264 263 264 265 266 265 264 262 263 264 264 263 264 263 262
283 282 282 282 281 280 280 278 277 277 275 273 273 272 270 268 266 266 268 268 268 270 270 267 265 264 264 264 263 263 264 264 263 264 264 263 262 264 264 263 263 263 262
283 282 280 279 279 279 279 278 277 277 277 275 273 272 271 268 267 267 267 266 266 270 269 267 264 261 262 263 262 263 263 262 262 263 264 263 262 261 262 262 263 264 263
282 281 280 279 277 277 278 278 278 278 277 275 274 273 273 271 268 267 266 266 267 268 267 266 264 261 260 260 261 262 262 262 262 263 263 263 262 261 261 261 262 264 264
284 282 279 279 277 277 277 276 277 277 277 275 274 274 275 273 271 268 266 266 267 267 264 264 263 264 263 260 259 260 261 260 261 262 261 262 261 261 261 262 263 264 264
283 281 278 279 278 277 277 276 276 276 277 276 274 274 275 274 273 270 265 265 266 266 264 262 262 264 265 262 260 260 260 261 261 262 263 263 261 261 261 262 262 263 264
283 282 279 278 278 277 276 275 275 275 276 275 275 274 274 274 272 269 266 264 265 265 264 262 261 262 263 262 262 261 262 263 263 263 265 264 262 262 262 262 262 263 264
283 281 280 279 277 276 276 275 275 275 275 275 275 275 274 273 272 268 266 264 264 265 264 262 261 262 263 264 263 262 262 262 262 263 263 263 261 261 260 260 261 262 264
283 281 279 279 278 278 277 275 275 275 275 274 274 274 274 272 270 269 268 266 264 264 264 262 261 263 264 264 263 263 262 262 263 264 263 262 260 260 259 259 261 262 263
283 282 280 279 279 278 277 274 276 276 276 275 275 275 274 273 270 270 269 267 265 263 262 261 261 263 263 263 262 262 262 261 262 263 263 263 262 262 261 260 260 261 263
282 282 281 280 279 278 277 275 276 276 276 275 274 273 274 273 271 269 268 267 266 264 262 260 261 262 262 263 263 262 261 259 260 260 262 262 260 260 260 260 261 262 264
280 279 280 280 280 279 278 277 277 278 277 276 273 272 272 272 272 269 268 267 267 265 263 260 260 262 261 262 261 261 259 259 259 259 261 262 262 261 260 261 261 261 263
276 277 278 279 280 280 281 280 279 278 277 276 273 272 270 271 271 269 267 267 266 265 264 261 260 263 261 260 261 261 259 258 259 260 261 262 263 262 261 261 261 261 262
Height
5856 5855 5854 5853 5853 5852 5851 5850 5850 5849 5848 5848 5847 5846 5846 5845 5844 5844 5844 5844 5844 5844 5844 5843 5843 5844 5844 5844 5844 5844 5844 5843 5843 5843 5843 5843 5843 5843 5843 5843 5843 5843 5844
5853 5852 5852 5851 5850 5849 5848 5848 5847 5846 5846 5845 5844 5843 5843 5842 5842 5841 5841 5841 5841 5841 5841 5841 5841 5841 5841 5841 5841 5841 5841 5841 5841 5841 5841 5841 5841 5841 5840 5840 5841 5841 5841
5850 5850 5849 5848 5847 5847 5846 5845 5844 5844 5843 5842 5841 5841 5840 5839 5839 5838 5838 5837 5837 5837 5837 5837 5837 5838 5838 5838 5838 5839 5838 5838 5838 5838 5838 5838 5838 5838 5838 5838 5838 5838 5837
5847 5846 5846 5845 5844 5844 5843 5842 5842 5841 5840 5839 5838 5837 5837 5836 5835 5835 5834 5834 5834 5834 5834 5834 5834 5834 5834 5835 5835 5835 5835 5835 5835 5835 5835 5835 5835 5835 5835 5834 5834 5834 5834
5844 5843 5843 5842 5841 5840 5840 5839 5838 5838 5837 5836 5835 5834 5833 5832 5832 5831 5831 5830 5830 5830 5830 5830 5830 5831 5831 5831 5831 5832 5832 5832 5832 5832 5832 5832 5832 5831 5831 5831 5831 5831 5831
5840 5839 5839 5838 5838 5837 5836 5835 5835 5834 5833 5832 5831 5830 5829 5828 5828 5827 5827 5826 5826 5825 5825 5826 5826 5827 5827 5827 5827 5828 5828 5828 5828 5828 5828 5828 5828 5828 5828 5827 5827 5827 5827
5836 5835 5835 5834 5833 5833 5832 5831 5831 5830 5829 5828 5827 5826 5825 5824 5824 5823 5823 5822 5822 5822 5822 5822 5822 5822 5823 5823 5823 5824 5824 5824 5824 5825 5825 5825 5824 5824 5824 5824 5824 5823 5823
5831 5831 5830 5829 5829 5828 5828 5827 5826 5825 5824 5823 5822 5821 5821 5821 5819 5819 5818 5818 5818 5818 5818 5817 5818 5818 5818 5819 5819 5820 5820 5820 5820 5820 5820 5821 5821 5820 5820 5820 5820 5819 5819
5827 5826 5825 5824 5824 5823 5822 5822 5821 5820 5820 5818 5817 5817 5816 5816 5815 5815 5814 5813 5813 5813 5813 5813 5813 5813 5814 5814 5815 5815 5815 5815 5815 5816 5816 5816 5816 5816 5816 5816 5815 5815 5815
5821 5820 5819 5819 5818 5817 5817 5816 5815 5815 5814 5813 5812 5811 5811 5811 5810 5810 5809 5809 5808 5808 5808 5808 5808 5808 5809 5809 5810 5810 5810 5810 5810 5810 5811 5811 5811 5811 5811 5811 5811 5811 5810
5816 5815 5814 5813 5812 5811 5810 5810 5809 5809 5808 5807 5806 5806 5805 5805 5805 5805 5804 5804 5803 5803 5803 5803 5803 5803 5804 5804 5804 5804 5805 5805 5805 5805 5805 5806 5806 5806 5806 5806 5806 5806 5805
5810 5809 5808 5806 5805 5805 5804 5803 5802 5802 5801 5801 5800 5799 5799 5799 5799 5798 5798 5798 5798 5797 5797 5797 5797 5797 5798 5798 5798 5799 5799 5799 5799 5799 5800 5800 5800 5800 5800 5800 5800 5800 5800
5804 5803 5801 5800 5799 5798 5797 5796 5795 5794 5794 5793 5793 5792 5792 5792 5792 5792 5792 5791 5791 5791 5790 5790 5790 5791 5791 5792 5792 5792 5793 5793 5793 5793 5793 5794 5794 5794 5795 5795 5795 5795 5794
5797 5795 5794 5793 5792 5790 5789 5788 5788 5787 5786 5786 5785 5785 5785 5785 5784 5785 5784 5784 5784 5784 5784 5784 5783 5783 5784 5785 5785 5785 5786 5786 5787 5787 5787 5787 5788 5788 5788 5788 5788 5788 5788
5789 5788 5787 5785 5784 5783 5782 5781 5780 5779 5778 5778 5777 5777 5776 5776 5776 5776 5777 5777 5777 5777 5777 5776 5776 5776 5777 5777 5778 5778 5779 5779 5780 5780 5780 5781 5781 5781 5781 5782 5782 5782 5782
5781 5780 5779 5777 5776 5775 5774 5773 5772 5771 5770 5770 5769 5769 5768 5768 5768 5768 5768 5768 5768 5769 5769 5769 5769 5769 5769 5770 5770 5771 5771 5772 5772 5773 5773 5774 5774 5775 5775 5775 5775 5775 5775
5773 5771 5770 5769 5768 5767 5766 5765 5764 5763 5762 5762 5761 5760 5760 5759 5759 5759 5759 5760 5760 5760 5760 5761 5761 5761 5762 5762 5763 5763 5764 5764 5765 5765 5766 5766 5767 5767 5767 5768 5768 5768 5768
5765 5763 5762 5761 5760 5759 5758 5757 5756 5755 5754 5753 5753 5752 5751 5751 5750 5750 5751 5751 5751 5751 5752 5752 5753 5753 5754 5754 5755 5755 5756 5757 5757 5758 5758 5758 5759 5759 5759 5760 5760 5761 5761
5756 5755 5753 5752 5751 5751 5750 5749 5748 5747 5746 5745 5744 5744 5743 5742 5742 5742 5742 5742 5742 5743 5743 5744 5745 5745 5745 5746 5747 5747 5748 5749 5749 5750 5750 5750 5751 5751 5752 5752 5753 5753 5754
5748 5746 5745 5744 5743 5742 5741 5740 5740 5739 5738 5737 5736 5735 5735 5734 5734 5734 5733 5734 5734 5734 5735 5736 5736 5737 5737 5737 5738 5739 5740 5741 5741 5742 5742 5743 5743 5744 5744 5745 5745 5746 5746
5739 5737 5736 5735 5734 5733 5732 5731 5731 5730 5729 5728 5728 5727 5726 5725 5725 5725 5725 5725 5725 5726 5726 5727 5728 5729 5729 5730 5730 5731 5732 5733 5733 5734 5734 5735 5735 5736 5736 5737 5738 5738 5739
5729 5728 5726 5725 5724 5723 5722 5722 5721 5721 5720 5720 5719 5718 5717 5716 5716 5716 5716 5716 5717 5717 5718 5719 5720 5721 5721 5722 5722 5723 5723 5724 5725 5726 5726 5727 5727 5728 5728 5729 5730 5730 5731
5720 5719 5717 5716 5715 5714 5713 5712 5712 5711 5711 5710 5710 5709 5708 5708 5707 5707 5707 5708 5708 5708 5710 5710 5711 5712 5713 5713 5714 5714 5715 5716 5717 5718 5718 5718 5719 5720 5720 5721 5722 5722 5722
5711 5710 5708 5707 5706 5704 5703 5703 5702 5702 5701 5701 5700 5700 5699 5699 5698 5699 5699 5699 5699 5700 5701 5701 5703 5703 5704 5704 5705 5706 5707 5707 5708 5709 5710 5710 5710 5711 5712 5712 5713 5714 5714
5702 5700 5699 5698 5697 5696 5695 5694 5693 5693 5692 5691 5691 5691 5690 5690 5690 5689 5689 5690 5690 5691 5691 5692 5693 5694 5694 5695 5696 5697 5698 5699 5700 5701 5701 5702 5702 5703 5703 5704 5704 5705 5705
5692 5691 5691 5689 5688 5688 5687 5686 5685 5684 5683 5683 5682 5682 5681 5681 5681 5680 5680 5681 5681 5682 5683 5683 5684 5685 5685 5686 5687 5688 5689 5690 5691 5692 5693 5694 5694 5694 5695 5695 5696 5696 5697